Regional Weather Roundup
Issued by NWS

Home | Current Version | Previous Version | Text Only | Print | Product List | Glossary On
Versions: 1 2 3 4 5 6 7 8 9 10 11 12 13 14 15 16 17 18 19 20 21 22 23 24 25 26 27 28 29 30 31 32 33 34 35 36 37 38 39 40 41 42 43 44 45 46 47 48 49 50
000
ASUS44 KFWD 291315
RWRTX
NORTH TEXAS HOURLY WEATHER ROUNDUP
NATIONAL WEATHER SERVICE FORT WORTH TX
700 AM CST MON DEC 29 2014

NOTE: "FAIR" INDICATES FEW OR NO CLOUDS BELOW 12,000 FEET WITH NO
SIGNIFICANT WEATHER AND/OR OBSTRUCTIONS TO VISIBILITY.

TXZ118-119-291400-
DALLAS/FORT WORTH METROPLEX

CITY           SKY/WX    TMP DP  RH WIND       PRES   REMARKS
DFW AIRPORT    MOCLDY    31  26  82 SE8       30.10S WCI  23
DALLAS LOVE    MOCLDY    32  26  78 SE9       30.12S WCI  24
FTW MEACHAM    PTCLDY    34  26  72 SE6       30.10R WCI  29
DAL-EXECUTIVE  CLEAR     29  24  82 SE8       30.11R WCI  21
FTW-ALLIANCE   MOCLDY    32  26  78 SE5       30.10R WCI  27
FTW-SPINKS     CLEAR     30  27  86 SE3       30.12R
ARLINGTON      CLEAR     29  23  78 E3        30.11R
ADDISON        PTCLDY    32  27  80 E8        30.12R WCI  25
MESQUITE       CLEAR     27  27 100 CALM      30.15
LANCASTER      CLEAR     27  24  89 CALM      30.15R
$$

TXZ091>094-102>105-117-120-121-131>134-291400-
NORTH CENTRAL TEXAS

CITY           SKY/WX    TMP DP  RH WIND       PRES   REMARKS
SHRMAN/DENISON PTCLDY    32  29  90 SE6       30.12R WCI  26
GAINESVILLE    MOCLDY    29  26  86 SE7       30.11R WCI  22
BOWIE          MOCLDY    34  24  66 SE6       30.06R WCI  29
BRIDGEPORT     PTCLDY    33  28  81 E3        30.09R
DECATUR        PTCLDY    34  23  63 SE8       30.07R WCI  27
DENTON         PTCLDY    31  26  82 SE6       30.10R WCI  25
MCKINNEY       CLEAR     28  25  88 CALM      30.13R
GREENVILLE     MOCLDY    28  28 100 E3        30.16R FOG
ROCKWALL       CLEAR     30  27  88 SE6       30.12R WCI  24
TERRELL        CLEAR     31  26  82 E5        30.15R WCI  26
WAXAHACHIE     CLEAR     28  28 100 CALM      30.13R
CLEBURNE       PTCLDY    32  28  86 S7        30.12R WCI  26
GRANBURY       MOCLDY    36  29  75 SE5       30.10R WCI  32
$$

TXZ083>090-098>101-113>116-127>130-139>142-154-155-291400-
WESTERN NORTH TEXAS

CITY           SKY/WX    TMP DP  RH WIND       PRES   REMARKS
WICHITA FALLS  CLOUDY    36  28  73 SE7       30.02R WCI  30
WF-KICKAPOO    CLOUDY    36  28  73 SE6       30.03S WCI  31
VERNON         PTCLDY    28  23  81 NE5       30.02R WCI  23
ABILENE        CLOUDY    43  32  65 S7        30.02R WCI  39
ABILENE-DYESS  CLOUDY    44  32  63 SW6       30.01R
BRECKENRIDGE   CLOUDY    40  31  68 S6        30.02R WCI  36
GRAHAM         CLOUDY    37  31  79 SE3       30.01S
MINERAL WELLS  CLOUDY    33  27  78 SE12      30.05R WCI  24
STEPHENVILLE   MOCLDY    32  28  84 S5        30.08S WCI  27
COMANCHE       MOCLDY    31  29  94 CALM      30.07R
BROWNWOOD      CLOUDY    32  28  86 S5        30.08R WCI  27
COLEMAN        MOCLDY    39  33  78 SW7       30.06R WCI  34
BRADY          CLEAR     34  30  86 SW5       30.05R WCI  30
$$

TXZ143>147-156>162-174-175-291400-
CENTRAL TEXAS

CITY           SKY/WX    TMP DP  RH WIND       PRES   REMARKS
WACO           PTCLDY    24  22  91 SE3       30.13R
WACO-TSTC      CLEAR     27  25  93 CALM      30.15
WACO-MCGREGOR  PTCLDY    27  21  80 S3        30.14R
HILLSBORO      PTCLDY    32  27  80 SE3       30.12R
CORSICANA      FOG       32  29  88 E7        30.15R VSB 3/4 WCI  26
MEXIA          CLEAR     29  27  92 CALM      30.12S
HEARNE         PTCLDY    27  26  97 CALM      30.16R
CAMERON        PTCLDY    30  29  95 S3        30.15R
TEMPLE         PTCLDY    28  21  74 S5        30.12R WCI  23
KILLEEN        PTCLDY    33  29  87 S10       30.11R WCI  24
KILLEEN-SKYLRK PTCLDY    28  19  69 CALM      30.11R
FORT HOOD      PTCLDY    31  26  81 SE5       30.11R WCI  26
GATESVILLE     CLEAR     28  27  93 CALM      30.13R
HAMILTON       PTCLDY    30  26  86 S9        30.07S WCI  22
$$

TXZ095>097-106>112-122>126-135>138-148>153-164>167-291400-
EAST TEXAS

CITY           SKY/WX    TMP DP  RH WIND       PRES   REMARKS
PARIS          CLOUDY    34  30  86 E6        30.16S WCI  29
SULPHUR SPRNGS CLOUDY    33  33  99 SE3       30.18R
MOUNT PLEASANT CLOUDY    38  37  98 CALM      30.19R
GILMER         CLOUDY    37  37 100 CALM      30.16S FOG
MINEOLA        CLOUDY    36  36 100 CALM      30.17R
TYLER          CLOUDY    38  36  92 E5        30.15R FOG     WCI  34
LONGVIEW       CLOUDY    41  39  93 E6        30.15S WCI  37
MARSHALL       CLOUDY    41  40  93 CALM      30.18R
ATHENS         CLOUDY    34  34 100 CALM      30.14S FOG
PALESTINE      FOG       36  36 100 E5        30.16R VSB 1/2 WCI  32
JACKSONVILLE   FOG       38  38 100 CALM      30.15R VSB 1/4
HENDERSON      CLOUDY    39  39 100 CALM      30.17R FOG
NACOGDOCHES      N/A    N/A N/A N/A MISG        N/A
LUFKIN         CLOUDY    43  40  89 N3        30.16R FOG
$$

SUPPLEMENTAL OBSERVATIONS (CENTRAL)

CITY           SKY/WX    TMP DP  RH WIND       PRES   REMARKS
LAKE TEXOMA      N/A     30  28  93 E6          N/A  WCI  24
CADDO GRASSLND   N/A     30  27  86 S3          N/A
PAT MAYSE LAKE   N/A     34  32  93 E5          N/A  WCI  30
GREENVILLE       N/A     32  30  93 E5          N/A  WCI  27
MCGREGOR         N/A     28  25  86 SW3         N/A
TEMPLE           N/A     32  28  86 SW1         N/A
$$

SUPPLEMENTAL OBSERVATIONS (WEST)

CITY           SKY/WX    TMP DP  RH WIND       PRES   REMARKS
MILLERS CREEK    N/A     37  30  75 SW7         N/A  WCI  32
LBJ GRASSLAND    N/A     37  18  44 SE12        N/A  WCI  30
GRANBURY         N/A     36  28  75 SE6         N/A  WCI  31
HAMBY            N/A     39  32  75 S3          N/A
COLORADO BEND    N/A     32  30  93 CALM        N/A
$$

SUPPLEMENTAL OBSERVATIONS (EAST)

CITY           SKY/WX    TMP DP  RH WIND       PRES   REMARKS
TEXARKANA        N/A     37  34  87 NE2         N/A
LINDEN           N/A     39  37  93 E2          N/A
CADDO LAKE       N/A     41  39  93 N1          N/A
GILMER           N/A     37  36  93 NE1         N/A
HENDERSON        N/A     39  37  93 NE6         N/A  WCI  35
LUFKIN           N/A     41  39  93 MISG        N/A
N SABINE NF      N/A     43  41  93 MISG        N/A
$$

SUPPLEMENTAL OBSERVATIONS ARE A COLLECTION OF AUTOMATED INSTRUMENTS
THAT ARE MAINTAINED BY A VARIETY OF FEDERAL AND STATE AGENCIES.
CERTAIN ELEMENTS...SUCH AS HUMIDITY VALUES AND SUSTAINED WIND
SPEEDS...MAY BE APPROXIMATED.




USA.gov is the U.S. government's official web portal to all federal, state and local government web resources and services.